,,Stat6,,Stat2,,Stat8,,Stat9,,Stat10,,Wind1,,Wind1,
time,status,PA1M_AVG,status,PR1M_SUM,status,RH1M_AVG,status,SR1M_AVG,status,TA1M_AVG,status,W1dAve1m,status,W1sAve1m,
2006-03-02, 00:00:00,VALID,918.941,VALID,0,VALID,94.4967,VALID,0.0339617,VALID,18.1864,VALID,115,VALID,1.06747,
2006-03-02, 00:01:00,VALID,918.957,VALID,0,VALID,94.8388,VALID,0.0679233,VALID,18.1347,VALID,116,VALID,1.29457,
2006-03-02, 00:02:00,VALID,918.956,VALID,0,VALID,95.0524,VALID,0.0339617,VALID,18.119,VALID,109,VALID,1.3151,
2006-03-02, 00:03:00,VALID,918.949,VALID,0,VALID,95.2584,VALID,0.0339617,VALID,18.1058,VALID,105,VALID,1.12871,
2006-03-02, 00:04:00,VALID,918.935,VALID,0,VALID,95.3894,VALID,0,VALID,18.1192,VALID,105,VALID,1.2846,
2006-03-02, 00:05:00,VALID,918.922,VALID,0,VALID,95.4975,VALID,0.0509425,VALID,18.1349,VALID,106,VALID,1.24146,
2006-03-02, 00:06:00,VALID,918.911,VALID,0,VALID,95.0931,VALID,0.0679233,VALID,18.1446,VALID,96,VALID,1.00614,
2006-03-02, 00:07:00,VALID,918.903,VALID,0,VALID,95.3182,VALID,0.0679233,VALID,18.1388,VALID,98,VALID,1.09598,
2006-03-02, 00:08:00,VALID,918.885,VALID,0,VALID,95.378,VALID,-0.0509425,VALID,18.1395,VALID,92,VALID,1.17057,
2006-03-02, 00:09:00,VALID,918.884,VALID,0,VALID,95.6285,VALID,-0.0509425,VALID,18.1529,VALID,106,VALID,1.325,
2006-03-02, 00:10:00,VALID,918.895,VALID,0,VALID,95.5878,VALID,-0.0169808,VALID,18.1584,VALID,108,VALID,1.34642,
2006-03-02, 00:11:00,VALID,918.909,VALID,0,VALID,95.5573,VALID,-0.0679233,VALID,18.1847,VALID,113,VALID,1.4564,
2006-03-02, 00:12:00,VALID,918.913,VALID,0,VALID,95.3233,VALID,0,VALID,18.1781,VALID,114,VALID,1.40358,
2006-03-02, 00:13:00,VALID,918.917,VALID,0,VALID,95.2101,VALID,-0.0509425,VALID,18.1492,VALID,120,VALID,1.33947,
2006-03-02, 00:14:00,VALID,918.897,VALID,0,VALID,95.1821,VALID,-0.0509425,VALID,18.1074,VALID,126,VALID,1.106,
2006-03-02, 00:15:00,VALID,918.892,VALID,0,VALID,95.3894,VALID,-0.0509425,VALID,18.062,VALID,131,VALID,1.24792,
2006-03-02, 00:16:00,VALID,918.884,VALID,0,VALID,95.5509,VALID,-0.0849042,VALID,18.0497,VALID,129,VALID,1.14589,
2006-03-02, 00:17:00,VALID,918.863,VALID,0,VALID,95.631,VALID,-0.0509425,VALID,18.0359,VALID,126,VALID,1.25908,
2006-03-02, 00:18:00,VALID,918.854,VALID,0,VALID,95.5598,VALID,-0.0849042,VALID,18.056,VALID,125,VALID,1.27131,
2006-03-02, 00:19:00,VALID,918.856,VALID,0,VALID,95.4174,VALID,-0.0339617,VALID,18.0689,VALID,126,VALID,1.19066,
2006-03-02, 00:20:00,VALID,918.836,VALID,0,VALID,95.3602,VALID,-0.0339617,VALID,18.0754,VALID,129,VALID,1.01982,
2006-03-02, 00:21:00,VALID,918.847,VALID,0,VALID,95.3284,VALID,-0.0849042,VALID,18.0684,VALID,129,VALID,0.723011,
2006-03-02, 00:22:00,VALID,918.856,VALID,0,VALID,95.3665,VALID,-0.0849042,VALID,18.059,VALID,131,VALID,1.05105,
2006-03-02, 00:23:00,VALID,918.845,VALID,0,VALID,95.4568,VALID,-0.0509425,VALID,18.0433,VALID,122,VALID,0.797656,
2006-03-02, 00:24:00,VALID,918.859,VALID,0,VALID,95.6018,VALID,-0.0679233,VALID,18.0239,VALID,124,VALID,0.97496,
2006-03-02, 00:25:00,VALID,918.852,VALID,0,VALID,95.7569,VALID,-0.0339617,VALID,18.0043,VALID,117,VALID,1.18512,
2006-03-02, 00:26:00,VALID,918.853,VALID,0,VALID,95.79,VALID,-0.0509425,VALID,17.9914,VALID,112,VALID,1.37081,
2006-03-02, 00:27:00,VALID,918.833,VALID,0,VALID,95.748,VALID,-0.0849042,VALID,18.0078,VALID,109,VALID,1.30868,
2006-03-02, 00:28:00,VALID,918.823,VALID,0,VALID,95.7327,VALID,-0.0339617,VALID,18.0301,VALID,111,VALID,1.38709,
2006-03-02, 00:29:00,VALID,918.813,VALID,0,VALID,95.5382,VALID,-0.0849042,VALID,18.0728,VALID,103,VALID,1.44465,
2006-03-02, 00:30:00,VALID,918.784,VALID,0,VALID,95.2902,VALID,-0.0679233,VALID,18.0883,VALID,106,VALID,1.49023,
2006-03-02, 00:31:00,VALID,918.762,VALID,0,VALID,95.1059,VALID,-0.0849042,VALID,18.1111,VALID,116,VALID,1.67031,
2006-03-02, 00:32:00,VALID,918.736,VALID,0,VALID,95.1033,VALID,-0.0509425,VALID,18.1303,VALID,117,VALID,1.69401,
2006-03-02, 00:33:00,VALID,918.715,VALID,0,VALID,95.0588,VALID,-0.0339617,VALID,18.1464,VALID,111,VALID,1.52229,
2006-03-02, 00:34:00,VALID,918.711,VALID,0,VALID,95.0156,VALID,-0.0679233,VALID,18.1402,VALID,112,VALID,1.32286,
2006-03-02, 00:35:00,VALID,918.715,VALID,0,VALID,95.116,VALID,-0.0679233,VALID,18.1303,VALID,112,VALID,1.28999,
2006-03-02, 00:36:00,VALID,918.725,VALID,0,VALID,95.2368,VALID,-0.0679233,VALID,18.098,VALID,118,VALID,1.51059,
2006-03-02, 00:37:00,VALID,918.732,VALID,0,VALID,95.5903,VALID,-0.0339617,VALID,18.0853,VALID,117,VALID,1.61406,
2006-03-02, 00:38:00,VALID,918.74,VALID,0,VALID,95.7277,VALID,-0.0679233,VALID,18.059,VALID,120,VALID,1.43684,
2006-03-02, 00:39:00,VALID,918.72,VALID,0,VALID,96.0316,VALID,-0.0679233,VALID,18.0265,VALID,122,VALID,1.38151,
2006-03-02, 00:40:00,VALID,918.701,VALID,0,VALID,96.188,VALID,-0.0509425,VALID,17.9842,VALID,130,VALID,1.06574,
2006-03-02, 00:41:00,VALID,918.671,VALID,0,VALID,96.366,VALID,-0.0509425,VALID,17.9588,VALID,135,VALID,1.24888,
2006-03-02, 00:42:00,VALID,918.648,VALID,0,VALID,96.4245,VALID,-0.0169808,VALID,17.9263,VALID,125,VALID,1.0202,
2006-03-02, 00:43:00,VALID,918.634,VALID,0,VALID,96.4995,VALID,0.0169808,VALID,17.8972,VALID,128,VALID,0.941761,
2006-03-02, 00:44:00,VALID,918.614,VALID,0,VALID,96.4627,VALID,-0.0169808,VALID,17.8779,VALID,131,VALID,0.897507,
2006-03-02, 00:45:00,VALID,918.601,VALID,0,VALID,96.3215,VALID,-0.0339617,VALID,17.8684,VALID,135,VALID,0.889137,
2006-03-02, 00:46:00,VALID,918.595,VALID,0,VALID,96.1397,VALID,-0.0339617,VALID,17.8587,VALID,137,VALID,0.942708,
2006-03-02, 00:47:00,VALID,918.587,VALID,0,VALID,96.1219,VALID,-0.0509425,VALID,17.8751,VALID,141,VALID,0.940168,
2006-03-02, 00:48:00,VALID,918.582,VALID,0,VALID,95.9464,VALID,-0.0509425,VALID,17.8552,VALID,142,VALID,0.801448,
2006-03-02, 00:49:00,VALID,918.586,VALID,0,VALID,95.7404,VALID,-0.0169808,VALID,17.8624,VALID,140,VALID,0.956473,
2006-03-02, 00:50:00,VALID,918.581,VALID,0,VALID,95.6399,VALID,-0.0509425,VALID,17.8428,VALID,143,VALID,0.947088,
2006-03-02, 00:51:00,VALID,918.579,VALID,0,VALID,95.6336,VALID,-0.0509425,VALID,17.8331,VALID,141,VALID,0.897879,
2006-03-02, 00:52:00,VALID,918.564,VALID,0,VALID,95.6018,VALID,-0.0509425,VALID,17.8174,VALID,138,VALID,1.06318,
2006-03-02, 00:53:00,VALID,918.543,VALID,0,VALID,95.7671,VALID,-0.0849042,VALID,17.8008,VALID,137,VALID,1.05913,
2006-03-02, 00:54:00,VALID,918.537,VALID,0,VALID,95.8599,VALID,-0.0679233,VALID,17.7846,VALID,136,VALID,1.03343,
2006-03-02, 00:55:00,VALID,918.518,VALID,0,VALID,95.6603,VALID,-0.0339617,VALID,17.7943,VALID,133,VALID,0.976372,
2006-03-02, 00:56:00,VALID,918.502,VALID,0,VALID,95.3182,VALID,-0.0849042,VALID,17.7978,VALID,129,VALID,0.934524,
2006-03-02, 00:57:00,VALID,918.485,VALID,0,VALID,94.8757,VALID,-0.0339617,VALID,17.8139,VALID,126,VALID,1.06745,
2006-03-02, 00:58:00,VALID,918.481,VALID,0,VALID,94.3848,VALID,-0.0509425,VALID,17.8398,VALID,119,VALID,1.54467,
2006-03-02, 00:59:00,VALID,918.487,VALID,0,VALID,93.9818,VALID,-0.0339617,VALID,17.8912,VALID,118,VALID,1.61452,
2006-03-02, 01:00:00,VALID,918.474,VALID,0,VALID,93.6181,VALID,-0.0339617,VALID,17.9718,VALID,119,VALID,1.56704,
2006-03-02, 01:01:00,VALID,918.469,VALID,0,VALID,93.2302,VALID,-0.0169808,VALID,18.053,VALID,116,VALID,1.53811,
2006-03-02, 01:02:00,VALID,918.466,VALID,0,VALID,92.9289,VALID,-0.0509425,VALID,18.1176,VALID,115,VALID,1.49809,
2006-03-02, 01:03:00,VALID,918.471,VALID,0,VALID,92.7814,VALID,-0.0169808,VALID,18.1529,VALID,113,VALID,1.57951,
2006-03-02, 01:04:00,VALID,918.461,VALID,0,VALID,92.719,VALID,-0.0509425,VALID,18.1561,VALID,117,VALID,1.53906,
2006-03-02, 01:05:00,VALID,918.435,VALID,0,VALID,92.7623,VALID,-0.0509425,VALID,18.1467,VALID,115,VALID,1.52865,
2006-03-02, 01:06:00,VALID,918.419,VALID,0,VALID,92.7915,VALID,-0.0849042,VALID,18.121,VALID,117,VALID,1.4306,
2006-03-02, 01:07:00,VALID,918.411,VALID,0,VALID,92.9428,VALID,-0.0509425,VALID,18.0724,VALID,123,VALID,1.24777,
2006-03-02, 01:08:00,VALID,918.389,VALID,0,VALID,93.2557,VALID,-0.0339617,VALID,18.0204,VALID,129,VALID,1.00986,
2006-03-02, 01:09:00,VALID,918.388,VALID,0,VALID,94.4243,VALID,-0.0169808,VALID,17.9685,VALID,131,VALID,1.12882,
2006-03-02, 01:10:00,VALID,918.381,VALID,0,VALID,95.1262,VALID,-0.0169808,VALID,17.9136,VALID,128,VALID,1.0349,
2006-03-02, 01:11:00,VALID,918.366,VALID,0,VALID,95.5954,VALID,-0.0509425,VALID,17.8428,VALID,125,VALID,1.19866,
2006-03-02, 01:12:00,VALID,918.357,VALID,0,VALID,96.1575,VALID,-0.0339617,VALID,17.7786,VALID,122,VALID,1.30541,
2006-03-02, 01:13:00,VALID,918.336,VALID,0,VALID,96.5809,VALID,-0.0509425,VALID,17.6873,VALID,126,VALID,1.45969,
2006-03-02, 01:14:00,VALID,918.323,VALID,0,VALID,96.7602,VALID,-0.0339617,VALID,17.6261,VALID,121,VALID,1.64807,
2006-03-02, 01:15:00,VALID,918.299,VALID,0,VALID,96.8746,VALID,-0.0509425,VALID,17.6037,VALID,124,VALID,1.6077,
2006-03-02, 01:16:00,VALID,918.279,VALID,0,VALID,97.0133,VALID,-0.0339617,VALID,17.6035,VALID,131,VALID,1.45722,
2006-03-02, 01:17:00,VALID,918.26,VALID,0,VALID,96.7462,VALID,-0.0509425,VALID,17.5779,VALID,131,VALID,1.56399,
2006-03-02, 01:18:00,VALID,918.238,VALID,0,VALID,96.6648,VALID,-0.0339617,VALID,17.5876,VALID,134,VALID,1.34003,
2006-03-02, 01:19:00,VALID,918.232,VALID,0,VALID,96.4957,VALID,-0.0339617,VALID,17.5906,VALID,129,VALID,1.26711,
2006-03-02, 01:20:00,VALID,918.227,VALID,0,VALID,96.6127,VALID,-0.0169808,VALID,17.5777,VALID,137,VALID,1.36047,
2006-03-02, 01:21:00,VALID,918.23,VALID,0,VALID,97.0539,VALID,-0.0679233,VALID,17.6014,VALID,131,VALID,1.50534,
2006-03-02, 01:22:00,VALID,918.231,VALID,0,VALID,97.2587,VALID,-0.0849042,VALID,17.5751,VALID,132,VALID,1.35671,
2006-03-02, 01:23:00,VALID,918.222,VALID,0,VALID,97.1722,VALID,0,VALID,17.5452,VALID,130,VALID,1.2276,
2006-03-02, 01:24:00,VALID,918.224,VALID,0,VALID,97.1913,VALID,0,VALID,17.5064,VALID,118,VALID,1.3601,
2006-03-02, 01:25:00,VALID,918.234,VALID,0,VALID,97.0857,VALID,0.0339617,VALID,17.4702,VALID,114,VALID,1.3834,
2006-03-02, 01:26:00,VALID,918.236,VALID,0,VALID,96.8823,VALID,0.0509425,VALID,17.4665,VALID,122,VALID,1.44023,
2006-03-02, 01:27:00,VALID,918.241,VALID,0,VALID,96.5847,VALID,0.0169808,VALID,17.4868,VALID,120,VALID,1.34189,
2006-03-02, 01:28:00,VALID,918.224,VALID,0,VALID,96.3482,VALID,0.0339617,VALID,17.503,VALID,117,VALID,1.40682,
2006-03-02, 01:29:00,VALID,918.205,VALID,0,VALID,96.0901,VALID,0.0169808,VALID,17.5057,VALID,120,VALID,1.22311,
2006-03-02, 01:30:00,VALID,918.184,VALID,0,VALID,95.9782,VALID,0.0509425,VALID,17.5288,VALID,123,VALID,1.46548,
2006-03-02, 01:31:00,VALID,918.161,VALID,0,VALID,95.7442,VALID,0.0679233,VALID,17.538,VALID,122,VALID,1.56957,
2006-03-02, 01:32:00,VALID,918.141,VALID,0,VALID,95.556,VALID,0.0509425,VALID,17.5835,VALID,122,VALID,1.5109,
2006-03-02, 01:33:00,VALID,918.114,VALID,0,VALID,95.2228,VALID,0.0509425,VALID,17.6255,VALID,121,VALID,1.50243,
2006-03-02, 01:34:00,VALID,918.099,VALID,0,VALID,95.0906,VALID,0.0509425,VALID,17.658,VALID,121,VALID,1.56231,
2006-03-02, 01:35:00,VALID,918.086,VALID,0,VALID,94.9088,VALID,0.0169808,VALID,17.6774,VALID,125,VALID,1.35194,
2006-03-02, 01:36:00,VALID,918.076,VALID,0,VALID,94.8553,VALID,0.0339617,VALID,17.6774,VALID,118,VALID,1.46602,
2006-03-02, 01:37:00,VALID,918.055,VALID,0,VALID,94.7574,VALID,0.0339617,VALID,17.6871,VALID,109,VALID,1.32213,
2006-03-02, 01:38:00,VALID,918.039,VALID,0,VALID,94.8045,VALID,-0.0509425,VALID,17.6789,VALID,111,VALID,1.45876,
2006-03-02, 01:39:00,VALID,917.999,VALID,0,VALID,94.9151,VALID,-0.0849042,VALID,17.6787,VALID,117,VALID,1.64002,
2006-03-02, 01:40:00,VALID,917.976,VALID,0,VALID,94.8948,VALID,-0.101885,VALID,17.669,VALID,118,VALID,1.57976,
2006-03-02, 01:41:00,VALID,917.948,VALID,0,VALID,94.7879,VALID,-0.0849042,VALID,17.6628,VALID,121,VALID,1.50781,
2006-03-02, 01:42:00,VALID,917.917,VALID,0,VALID,94.7244,VALID,-0.0849042,VALID,17.6563,VALID,126,VALID,1.44123,
2006-03-02, 01:43:00,VALID,917.912,VALID,0,VALID,94.6748,VALID,-0.101885,VALID,17.6526,VALID,123,VALID,1.45721,
2006-03-02, 01:44:00,VALID,917.903,VALID,0,VALID,94.6252,VALID,-0.0679233,VALID,17.6626,VALID,122,VALID,1.4933,
2006-03-02, 01:45:00,VALID,917.896,VALID,0,VALID,94.5858,VALID,-0.0679233,VALID,17.6595,VALID,125,VALID,1.49673,
2006-03-02, 01:46:00,VALID,917.895,VALID,0,VALID,94.5476,VALID,-0.0679233,VALID,17.6621,VALID,122,VALID,1.56068,
2006-03-02, 01:47:00,VALID,917.888,VALID,0,VALID,94.498,VALID,-0.0849042,VALID,17.7018,VALID,123,VALID,1.74146,
2006-03-02, 01:48:00,VALID,917.893,VALID,0,VALID,94.5273,VALID,-0.0849042,VALID,17.7011,VALID,121,VALID,1.78525,
2006-03-02, 01:49:00,VALID,917.906,VALID,0,VALID,94.5451,VALID,-0.101885,VALID,17.7175,VALID,121,VALID,1.81529,
2006-03-02, 01:50:00,VALID,917.894,VALID,0,VALID,94.7396,VALID,-0.0509425,VALID,17.7076,VALID,124,VALID,1.8458,
2006-03-02, 01:51:00,VALID,917.903,VALID,0,VALID,95.0486,VALID,-0.0679233,VALID,17.7078,VALID,125,VALID,1.82286,
2006-03-02, 01:52:00,VALID,917.88,VALID,0,VALID,95.2991,VALID,-0.101885,VALID,17.6944,VALID,124,VALID,1.75527,
2006-03-02, 01:53:00,VALID,917.865,VALID,0,VALID,95.4288,VALID,0.0169808,VALID,17.6545,VALID,124,VALID,1.72994,
2006-03-02, 01:54:00,VALID,917.84,VALID,0,VALID,95.5128,VALID,0,VALID,17.6354,VALID,124,VALID,1.72347,
2006-03-02, 01:55:00,VALID,917.814,VALID,0,VALID,95.6806,VALID,0,VALID,17.616,VALID,134,VALID,1.45349,
2006-03-02, 01:56:00,VALID,917.796,VALID,0,VALID,95.6107,VALID,0.0169808,VALID,17.6352,VALID,131,VALID,1.63366,
2006-03-02, 01:57:00,VALID,917.759,VALID,0,VALID,95.907,VALID,0.0169808,VALID,17.6545,VALID,125,VALID,1.75017,
2006-03-02, 01:58:00,VALID,917.748,VALID,0,VALID,95.6946,VALID,0.0339617,VALID,17.7191,VALID,125,VALID,1.85789,
2006-03-02, 01:59:00,VALID,917.696,VALID,0,VALID,95.2355,VALID,0.0339617,VALID,17.7934,VALID,121,VALID,1.69222,
2006-03-02, 02:00:00,VALID,917.694,VALID,0,VALID,95.0054,VALID,0.0339617,VALID,17.8326,VALID,124,VALID,1.55362,
2006-03-02, 02:01:00,VALID,917.678,VALID,0,VALID,95.1529,VALID,0.0169808,VALID,17.8421,VALID,126,VALID,1.65552,
2006-03-02, 02:02:00,VALID,917.654,VALID,0,VALID,95.3233,VALID,0.0169808,VALID,17.8615,VALID,125,VALID,1.53811,
2006-03-02, 02:03:00,VALID,917.659,VALID,0,VALID,95.4479,VALID,0.0339617,VALID,17.8742,VALID,125,VALID,1.49531,
2006-03-02, 02:04:00,VALID,917.646,VALID,0,VALID,95.8065,VALID,0.0169808,VALID,17.871,VALID,120,VALID,1.621,
2006-03-02, 02:05:00,VALID,917.633,VALID,0,VALID,95.9655,VALID,0,VALID,17.9033,VALID,125,VALID,1.67483,
2006-03-02, 02:06:00,VALID,917.613,VALID,0,VALID,95.9044,VALID,0.0509425,VALID,17.9229,VALID,124,VALID,1.54961,
2006-03-02, 02:07:00,VALID,917.597,VALID,0,VALID,95.7556,VALID,0.0169808,VALID,17.9164,VALID,129,VALID,1.62809,
2006-03-02, 02:08:00,VALID,917.596,VALID,0,VALID,95.5369,VALID,-0.0679233,VALID,17.9046,VALID,134,VALID,1.35347,
2006-03-02, 02:09:00,VALID,917.587,VALID,0,VALID,95.4606,VALID,-0.0849042,VALID,17.8601,VALID,137,VALID,1.20276,
2006-03-02, 02:10:00,VALID,917.574,VALID,0,VALID,95.6069,VALID,-0.0849042,VALID,17.8148,VALID,141,VALID,1.14137,
2006-03-02, 02:11:00,VALID,917.56,VALID,0,VALID,95.6285,VALID,-0.101885,VALID,17.7825,VALID,140,VALID,0.947545,
2006-03-02, 02:12:00,VALID,917.547,VALID,0,VALID,95.5395,VALID,-0.0849042,VALID,17.7502,VALID,142,VALID,0.688072,
2006-03-02, 02:13:00,VALID,917.543,VALID,0,VALID,95.6285,VALID,-0.101885,VALID,17.6919,VALID,144,VALID,1.10866,
2006-03-02, 02:14:00,VALID,917.525,VALID,0,VALID,95.9896,VALID,-0.101885,VALID,17.6692,VALID,148,VALID,1.18058,
2006-03-02, 02:15:00,VALID,917.525,VALID,0,VALID,95.9922,VALID,-0.0849042,VALID,17.6404,VALID,138,VALID,1.18405,
2006-03-02, 02:16:00,VALID,917.52,VALID,0,VALID,96.3469,VALID,-0.118866,VALID,17.6305,VALID,135,VALID,1.12986,
2006-03-02, 02:17:00,VALID,917.518,VALID,0,VALID,96.2986,VALID,-0.101885,VALID,17.6501,VALID,140,VALID,1.03719,
2006-03-02, 02:18:00,VALID,917.513,VALID,0,VALID,96.4334,VALID,-0.101885,VALID,17.6496,VALID,140,VALID,1.12448,
2006-03-02, 02:19:00,VALID,917.515,VALID,0,VALID,96.3317,VALID,-0.101885,VALID,17.6822,VALID,139,VALID,1.13262,
2006-03-02, 02:20:00,VALID,917.509,VALID,0,VALID,96.1689,VALID,-0.0339617,VALID,17.7009,VALID,140,VALID,1.24023,
2006-03-02, 02:21:00,VALID,917.489,VALID,0,VALID,96.1028,VALID,-0.0849042,VALID,17.7336,VALID,134,VALID,1.36895,
2006-03-02, 02:22:00,VALID,917.469,VALID,0,VALID,96.0659,VALID,-0.118866,VALID,17.756,VALID,134,VALID,1.42569,
2006-03-02, 02:23:00,VALID,917.464,VALID,0,VALID,96.0723,VALID,-0.0169808,VALID,17.7874,VALID,143,VALID,1.35156,
2006-03-02, 02:24:00,VALID,917.438,VALID,0,VALID,95.907,VALID,0,VALID,17.8225,VALID,137,VALID,1.37202,
2006-03-02, 02:25:00,VALID,917.414,VALID,0,VALID,95.7137,VALID,0,VALID,17.855,VALID,139,VALID,1.04334,
2006-03-02, 02:26:00,VALID,917.395,VALID,0,VALID,95.6361,VALID,0.0169808,VALID,17.8677,VALID,138,VALID,1.25893,
2006-03-02, 02:27:00,VALID,917.38,VALID,0,VALID,95.5903,VALID,-0.0169808,VALID,17.8744,VALID,141,VALID,1.46361,
2006-03-02, 02:28:00,VALID,917.345,VALID,0,VALID,95.6565,VALID,0,VALID,17.8906,VALID,139,VALID,1.3564,
2006-03-02, 02:29:00,VALID,917.344,VALID,0,VALID,95.6641,VALID,-0.0169808,VALID,17.9069,VALID,139,VALID,1.48092,
2006-03-02, 02:30:00,VALID,917.326,VALID,0,VALID,95.6285,VALID,0,VALID,17.9229,VALID,133,VALID,1.45349,
2006-03-02, 02:31:00,VALID,917.306,VALID,0,VALID,95.7442,VALID,-0.0169808,VALID,17.9425,VALID,129,VALID,1.56566,
2006-03-02, 02:32:00,VALID,917.293,VALID,0,VALID,95.6081,VALID,-0.0169808,VALID,17.9817,VALID,131,VALID,1.41536,
2006-03-02, 02:33:00,VALID,917.278,VALID,0,VALID,95.4326,VALID,0,VALID,18.0034,VALID,130,VALID,1.4229,
2006-03-02, 02:34:00,VALID,917.281,VALID,0,VALID,95.2572,VALID,0,VALID,18.026,VALID,138,VALID,1.24929,
2006-03-02, 02:35:00,VALID,917.283,VALID,0,VALID,95.0982,VALID,0,VALID,18.0327,VALID,138,VALID,1.26215,
2006-03-02, 02:36:00,VALID,917.276,VALID,0,VALID,95.0639,VALID,0.0169808,VALID,18.02,VALID,138,VALID,1.0627,
2006-03-02, 02:37:00,VALID,917.283,VALID,0,VALID,95.0626,VALID,0,VALID,18.0103,VALID,140,VALID,0.836458,
2006-03-02, 02:38:00,VALID,917.281,VALID,0,VALID,95.1771,VALID,-0.0169808,VALID,17.987,VALID,144,VALID,0.947656,
2006-03-02, 02:39:00,VALID,917.288,VALID,0,VALID,95.2012,VALID,0,VALID,17.9785,VALID,147,VALID,1.12695,
2006-03-02, 02:40:00,VALID,917.289,VALID,0,VALID,95.2317,VALID,-0.0339617,VALID,17.9711,VALID,140,VALID,0.980097,
2006-03-02, 02:41:00,VALID,917.288,VALID,0,VALID,95.0842,VALID,0.0169808,VALID,17.9683,VALID,132,VALID,0.92016,
2006-03-02, 02:42:00,VALID,917.285,VALID,0,VALID,95.13,VALID,-0.0169808,VALID,17.9425,VALID,136,VALID,0.917111,
2006-03-02, 02:43:00,VALID,917.263,VALID,0,VALID,95.1936,VALID,0,VALID,17.9487,VALID,127,VALID,0.930273,
2006-03-02, 02:44:00,VALID,917.277,VALID,0,VALID,95.2661,VALID,-0.0169808,VALID,17.9196,VALID,135,VALID,1.03478,
2006-03-02, 02:45:00,VALID,917.26,VALID,0,VALID,95.2839,VALID,-0.0339617,VALID,17.9136,VALID,125,VALID,0.782203,
2006-03-02, 02:46:00,VALID,917.248,VALID,0,VALID,95.4606,VALID,0,VALID,17.8942,VALID,95,VALID,1.20729,
2006-03-02, 02:47:00,VALID,917.235,VALID,0,VALID,95.0448,VALID,-0.0169808,VALID,17.8613,VALID,69,VALID,0.964674,
2006-03-02, 02:48:00,VALID,917.22,VALID,0,VALID,94.9405,VALID,-0.0169808,VALID,17.7805,VALID,73,VALID,0.89974,
2006-03-02, 02:49:00,VALID,917.209,VALID,0,VALID,95.3983,VALID,-0.0169808,VALID,17.723,VALID,83,VALID,0.866992,
2006-03-02, 02:50:00,VALID,917.201,VALID,0,VALID,96.1842,VALID,-0.0169808,VALID,17.7097,VALID,110,VALID,1.13411,
2006-03-02, 02:51:00,VALID,917.192,VALID,0,VALID,96.3902,VALID,0,VALID,17.7355,VALID,112,VALID,1.26935,
2006-03-02, 02:52:00,VALID,917.183,VALID,0,VALID,96.2706,VALID,-0.0169808,VALID,17.781,VALID,125,VALID,1.38299,
2006-03-02, 02:53:00,VALID,917.185,VALID,0,VALID,95.8955,VALID,-0.0339617,VALID,17.8423,VALID,116,VALID,1.38319,
2006-03-02, 02:54:00,VALID,917.179,VALID,0,VALID,95.2737,VALID,0,VALID,17.8878,VALID,106,VALID,1.13782,
2006-03-02, 02:55:00,VALID,917.168,VALID,0,VALID,94.8757,VALID,-0.0169808,VALID,17.8843,VALID,92,VALID,1.06288,
2006-03-02, 02:56:00,VALID,917.164,VALID,0,VALID,94.8401,VALID,-0.0339617,VALID,17.8615,VALID,103,VALID,1.24507,
2006-03-02, 02:57:00,VALID,917.161,VALID,0,VALID,94.6417,VALID,-0.0339617,VALID,17.8719,VALID,121,VALID,1.33521,
2006-03-02, 02:58:00,VALID,917.141,VALID,0,VALID,94.4103,VALID,-0.0169808,VALID,17.8522,VALID,124,VALID,1.36047,
2006-03-02, 02:59:00,VALID,917.144,VALID,0,VALID,94.142,VALID,-0.0339617,VALID,17.8456,VALID,134,VALID,1.15376,
2006-03-02, 03:00:00,VALID,917.134,VALID,0,VALID,93.9805,VALID,0.0169808,VALID,17.8255,VALID,133,VALID,1.17783,
2006-03-02, 03:01:00,VALID,917.117,VALID,0,VALID,93.7478,VALID,-0.0169808,VALID,17.826,VALID,132,VALID,1.39472,
2006-03-02, 03:02:00,VALID,917.1,VALID,0,VALID,93.5723,VALID,0,VALID,17.8389,VALID,132,VALID,1.48666,
2006-03-02, 03:03:00,VALID,917.103,VALID,0,VALID,93.379,VALID,-0.0169808,VALID,17.8622,VALID,136,VALID,1.47783,
2006-03-02, 03:04:00,VALID,917.085,VALID,0,VALID,93.1501,VALID,-0.0169808,VALID,17.8624,VALID,133,VALID,1.23153,
2006-03-02, 03:05:00,VALID,917.074,VALID,0,VALID,93.1031,VALID,0,VALID,17.8292,VALID,132,VALID,1.25124,
2006-03-02, 03:06:00,VALID,917.072,VALID,0,VALID,92.9988,VALID,-0.0169808,VALID,17.8225,VALID,137,VALID,1.42813,
2006-03-02, 03:07:00,VALID,917.063,VALID,0,VALID,92.8869,VALID,-0.0169808,VALID,17.8299,VALID,141,VALID,1.133,
2006-03-02, 03:08:00,VALID,917.057,VALID,0,VALID,92.967,VALID,0,VALID,17.8031,VALID,124,VALID,1.07866,
2006-03-02, 03:09:00,VALID,917.041,VALID,0,VALID,93.1043,VALID,0,VALID,17.7937,VALID,115,VALID,1.17746,
2006-03-02, 03:10:00,VALID,917.023,VALID,0,VALID,93.1679,VALID,0,VALID,17.7807,VALID,115,VALID,1.01744,
2006-03-02, 03:11:00,VALID,917.02,VALID,0,VALID,93.3294,VALID,0,VALID,17.7713,VALID,116,VALID,1.07631,
2006-03-02, 03:12:00,VALID,917.013,VALID,0,VALID,93.5418,VALID,0.0169808,VALID,17.7484,VALID,125,VALID,1.09508,
2006-03-02, 03:13:00,VALID,917,VALID,0,VALID,93.3994,VALID,-0.0169808,VALID,17.7484,VALID,120,VALID,0.949491,
2006-03-02, 03:14:00,VALID,916.997,VALID,0,VALID,93.4172,VALID,-0.0169808,VALID,17.739,VALID,121,VALID,1.00074,
2006-03-02, 03:15:00,VALID,916.988,VALID,0,VALID,93.5558,VALID,0,VALID,17.7198,VALID,129,VALID,1.28976,
2006-03-02, 03:16:00,VALID,916.978,VALID,0,VALID,93.599,VALID,-0.0339617,VALID,17.6935,VALID,135,VALID,1.28981,
2006-03-02, 03:17:00,VALID,916.965,VALID,0,VALID,93.6257,VALID,-0.0169808,VALID,17.6905,VALID,135,VALID,1.08689,
2006-03-02, 03:18:00,VALID,916.974,VALID,0,VALID,93.6028,VALID,-0.0169808,VALID,17.6871,VALID,131,VALID,1.42801,
2006-03-02, 03:19:00,VALID,916.968,VALID,0,VALID,93.6575,VALID,-0.0169808,VALID,17.6875,VALID,127,VALID,1.21856,
2006-03-02, 03:20:00,VALID,916.955,VALID,0,VALID,93.9131,VALID,-0.0169808,VALID,17.6545,VALID,124,VALID,1.18837,
2006-03-02, 03:21:00,VALID,916.936,VALID,0,VALID,94.1076,VALID,-0.0169808,VALID,17.616,VALID,129,VALID,1.28441,
2006-03-02, 03:22:00,VALID,916.935,VALID,0,VALID,94.1343,VALID,-0.0169808,VALID,17.6037,VALID,134,VALID,1.1334,
2006-03-02, 03:23:00,VALID,916.908,VALID,0,VALID,94.1038,VALID,-0.0849042,VALID,17.5751,VALID,128,VALID,1.21573,
2006-03-02, 03:24:00,VALID,916.898,VALID,0,VALID,94.0606,VALID,-0.101885,VALID,17.5523,VALID,113,VALID,1.34063,
2006-03-02, 03:25:00,VALID,916.89,VALID,0,VALID,94.0657,VALID,-0.101885,VALID,17.5654,VALID,123,VALID,1.36166,
2006-03-02, 03:26:00,VALID,916.9,VALID,0,VALID,93.88,VALID,-0.0339617,VALID,17.5717,VALID,108,VALID,0.876116,
2006-03-02, 03:27:00,VALID,916.886,VALID,0,VALID,93.7325,VALID,-0.0679233,VALID,17.5853,VALID,105,VALID,1.01417,
2006-03-02, 03:28:00,VALID,916.878,VALID,0,VALID,93.6982,VALID,-0.0509425,VALID,17.5622,VALID,109,VALID,1.03609,
2006-03-02, 03:29:00,VALID,916.885,VALID,0,VALID,93.6003,VALID,-0.0849042,VALID,17.5269,VALID,119,VALID,0.877725,
2006-03-02, 03:30:00,VALID,916.869,VALID,0,VALID,93.6473,VALID,-0.0849042,VALID,17.5172,VALID,119,VALID,1.21493,
2006-03-02, 03:31:00,VALID,916.867,VALID,0,VALID,93.4782,VALID,-0.0679233,VALID,17.4916,VALID,114,VALID,0.962754,
2006-03-02, 03:32:00,VALID,916.86,VALID,0,VALID,93.3905,VALID,-0.101885,VALID,17.4627,VALID,123,VALID,1.20382,
2006-03-02, 03:33:00,VALID,916.857,VALID,0,VALID,93.3014,VALID,-0.0679233,VALID,17.4464,VALID,121,VALID,0.859747,